Weather in Kazanskoye

Russia / Tambov Oblast     53°24′33″N   40°38′54″E
temp.,
°C
wind,
m/s
gust,
m/s
humid.,
%
clouds,
%
prec.,
mm/h
press.,
hPa
HPBL,
m
9 march, tue
tue900:00−13nw34910 0.0 100933
03:00−15nnw23958 0.0 101121
06:00−15nnw349573 0.0 101280
09:00−15nnw379578 0.0 1013212
12:00−13nw469357 0.0 1014326
15:00−11nw479078 0.1 1015573
18:00−14nw4895100 0.0 1016153
21:00−16nw499667 0.1 1019165
10 march, wed
wed1000:00−17nnw469890 0.1 1020134
03:00−21nw4610064 0.1 102291
06:00−23nw479982 0.0 1023134
09:00−22nw589678 0.0 1025252
12:00−19nw479265 0.0 1026389
15:00−17nw479078 0.0 1027516
18:00−20nw349797 0.0 102868
21:00−22nnw349992 0.0 103042
11 march, thu
thu1100:00−24n339614 0.0 103123
03:00−25nnw23927 0.0 103220
06:00−25nw23910 0.0 103320
09:00−22nw35930 0.0 1034160
12:00−18nw34910 0.0 1034246
15:00−15nw248929 0.0 1033347
18:00−18w239629 0.0 103320
21:00−20nw229815 0.0 103420
12 march, fri
fri1200:00−21wnw11950 0.0 103420
03:00−21wsw22930 0.0 103520
06:00−22ssw12930 0.0 103520
09:00−19ssw24910 0.0 1036104
12:00−15s34860 0.0 1035222
15:00−13s35870 0.0 1034265
18:00−15s45910 0.0 103383
21:00−17s48890 0.0 1034133
13 march, sat
sat1300:00−17s510930 0.0 1033189
03:00−16s6129022 0.0 1032255
06:00−15s61489100 0.0 1031281
09:00−12s81484100 0.0 1030425
12:00−8s91581100 0.0 1029663
15:00−7s8147898 0.0 1028771
18:00−7s7147897 0.0 1027557
21:00−7s7147898 0.0 1026438